Custer, SD

4:04 PM MDT on October 01, 2016 (GMT -0600)
Custer County

Weather History for KCUT - August, 2014

Change the Weather History Date:

Tuesday, August 19, 2014

  Actual Average Record
Temperature  
Mean Temperature 66 °F 64 °F  
Max Temperature 82 °F 78 °F 95 °F (1986)
Min Temperature 50 °F 50 °F 30 °F (1978)
Degree Days  
Heating Degree Days 0 3  
Month to date heating degree days 10 45  
Since 1 June heating degree days 362 326  
Since 1 July heating degree days 89 106  
Cooling Degree Days 1 2  
Month to date cooling degree days 36 38  
Year to date cooling degree days 126 145  
Since 1 June cooling degree days 122 144  
Growing Degree Days 16 (Base 50)    
Moisture  
Dew Point 51 °F    
Average Humidity 58    
Maximum Humidity 83    
Minimum Humidity 33    
Precipitation  
Precipitation T in 0.07 in 0.91 in (1993)
Month to date precipitation 1.61 1.31  
Year to date precipitation 14.22 14.08  
Sea Level Pressure  
Sea Level Pressure 29.78 in    
Wind  
Wind Speed 5 mph (East)    
Max Wind Speed 16 mph    
Max Gust Speed 21 mph    
Visibility 10 miles    
Events      
T = Trace of Precipitation, MM = Missing Value Source: NWS Daily Summary

Daily Weather History Graph

Daily Weather History Graph

Search for Another Location

Airport or City:

Trip Planner

Search our weather history database for the weather conditions in past years. The results will help you decide how hot, cold, wet, or windy it might be!

Date:

Astronomy

Aug. 19, 2014 Rise Set
Actual Time 6:03 AM MDT 7:51 PM MDT
Civil Twilight 5:32 AM MDT 8:22 PM MDT
Nautical Twilight 4:55 AM MDT 8:59 PM MDT
Astronomical Twilight 4:14 AM MDT 9:40 PM MDT
Moon 12:54 AM MDT (8/19) 3:53 PM MDT (8/19)
Length of Visible Light 14h 49m
Length of Day
13h 48m
Waning Crescent, 28% of the Moon is Illuminated
Aug 19
Waning Crescent
Aug 25
New
Sep 2
First Quarter
Sep 8
Full
Sep 15
Last Quarter

Hourly Weather History & Observations

Time (MDT) Temp. Heat Index Dew Point Humidity Pressure Visibility Wind Dir Wind Speed Gust Speed Precip Events Conditions
12:53 AM 54.0 °F - 46.9 °F 77% 29.87 in 10.0 mi NW 4.6 mph - N/A   Clear
1:53 AM 52.0 °F - 46.9 °F 83% 29.85 in 10.0 mi NNW 4.6 mph - N/A   Clear
3:53 AM 51.1 °F - 46.0 °F 83% 29.84 in 10.0 mi NNW 3.5 mph - N/A   Scattered Clouds
4:53 AM 51.1 °F - 46.9 °F 86% 29.83 in 10.0 mi Calm Calm - N/A   Clear
5:53 AM 54.0 °F - 46.9 °F 77% 29.83 in 10.0 mi East 4.6 mph - N/A   Partly Cloudy
6:53 AM 53.1 °F - 48.0 °F 83% 29.85 in 10.0 mi Calm Calm - N/A   Clear
7:53 AM 62.1 °F - 52.0 °F 70% 29.82 in 10.0 mi Calm Calm - N/A   Clear
8:53 AM 66.9 °F - 50.0 °F 54% 29.80 in 10.0 mi Calm Calm - N/A   Clear
9:53 AM 73.0 °F - 48.9 °F 42% 29.79 in 10.0 mi Calm Calm - N/A   Clear
10:53 AM - - - N/A% 29.97 in - North - - N/A   Unknown
11:53 AM 80.1 °F - 48.9 °F 34% 29.75 in 10.0 mi ENE 5.8 mph - N/A   Clear
12:53 PM 81.0 °F 80.4 °F 53.1 °F 38% 29.74 in 10.0 mi East 11.5 mph 20.7 mph N/A   Clear
1:53 PM 81.0 °F - 52.0 °F 36% 29.75 in 10.0 mi ESE 11.5 mph - N/A   Mostly Cloudy
2:53 PM 80.1 °F - 51.1 °F 36% 29.73 in 10.0 mi SE 8.1 mph 16.1 mph N/A   Partly Cloudy
3:53 PM 78.1 °F - 51.1 °F 39% 29.74 in 10.0 mi ESE 12.7 mph - N/A   Clear
4:53 PM 81.0 °F - 50.0 °F 34% 29.73 in 10.0 mi SSE 9.2 mph - N/A   Clear
5:53 PM 79.0 °F - 53.1 °F 40% 29.71 in 10.0 mi ESE 9.2 mph - N/A   Clear
6:53 PM 75.9 °F - 53.1 °F 45% 29.72 in 10.0 mi ESE 8.1 mph - N/A   Clear
7:53 PM 72.0 °F - 54.0 °F 53% 29.71 in 10.0 mi ENE 3.5 mph - N/A   Clear
8:53 PM 69.1 °F - 54.0 °F 58% 29.69 in 10.0 mi NE 8.1 mph - N/A   Clear
9:53 PM 68.0 °F - 55.9 °F 65% 29.69 in 10.0 mi NNE 5.8 mph - N/A   Clear
10:53 PM 66.9 °F - 55.9 °F 68% 29.90 in 10.0 mi Calm Calm - N/A   Mostly Cloudy
11:53 PM 66.9 °F - 54.0 °F 63% 29.66 in 10.0 mi East 6.9 mph - N/A   Overcast